• In Hungary
  • List of Countries
  • For 7 days
  • Water Temperature
  • Satellite Maps
  • Weather Map
  • News
  • Weather Widgets
  • user-avatar
    Login

    Hourly Weather Velikopole

    Today, 24 May, Thursday

    Time Temperature Precipitation Wind Pressure Humidity
    00:00 +13°C° 0.2 mm 3 mps 744 mmHg 82%
    01:00 +12°C° 0.2 mm 3 mps 744 mmHg 87%
    02:00 +11°C° 0 mm 4 mps 744 mmHg 86%
    03:00 +10°C° 0 mm 4 mps 745 mmHg 85%
    04:00 +8°C° 0 mm 4 mps 746 mmHg 84%
    05:00 +7°C° 0 mm 4 mps 746 mmHg 79%
    06:00 +7°C° 0 mm 4 mps 747 mmHg 74%
    07:00 +6°C° 0 mm 4 mps 748 mmHg 70%
    08:00 +7°C° 0 mm 4 mps 748 mmHg 62%
    09:00 +8°C° 0 mm 4 mps 749 mmHg 54%
    10:00 +10°C° 0 mm 4 mps 749 mmHg 45%
    11:00 +11°C° 0 mm 4 mps 749 mmHg 43%
    12:00 +11°C° 0 mm 4 mps 750 mmHg 40%
    13:00 +12°C° 0 mm 4 mps 750 mmHg 37%
    14:00 +11°C° 0 mm 4 mps 750 mmHg 38%
    15:00 +11°C° 0 mm 4 mps 750 mmHg 38%
    16:00 +11°C° 0 mm 4 mps 750 mmHg 39%
    17:00 +10°C° 0 mm 4 mps 750 mmHg 40%
    18:00 +8°C° 0 mm 4 mps 750 mmHg 42%
    19:00 +8°C° 0 mm 4 mps 750 mmHg 43%
    20:00 +8°C° 0 mm 3 mps 751 mmHg 49%
    21:00 +6°C° 0 mm 2 mps 751 mmHg 55%
    22:00 +5°C° 0 mm 2 mps 751 mmHg 61%
    23:00 +5°C° 0.1 mm 2 mps 751 mmHg 64%

    Tomorrow, 25 May, Friday

    Time Temperature Precipitation Wind Pressure Humidity
    00:00 +4°C° 0.1 mm 2 mps 751 mmHg 68%
    01:00 +4°C° 0.1 mm 2 mps 751 mmHg 71%
    02:00 +4°C° 0 mm 2 mps 751 mmHg 73%
    03:00 +3°C° 0 mm 2 mps 752 mmHg 76%
    04:00 +2°C° 0 mm 2 mps 752 mmHg 79%
    05:00 +2°C° 0 mm 3 mps 752 mmHg 72%
    06:00 +2°C° 0 mm 3 mps 752 mmHg 66%
    07:00 +3°C° 0 mm 3 mps 753 mmHg 60%
    08:00 +3°C° 0 mm 4 mps 753 mmHg 56%
    09:00 +3°C° 0 mm 4 mps 753 mmHg 51%
    10:00 +4°C° 0 mm 4 mps 753 mmHg 47%
    11:00 +4°C° 0 mm 4 mps 754 mmHg 44%
    12:00 +5°C° 0 mm 4 mps 754 mmHg 42%
    13:00 +5°C° 0 mm 4 mps 754 mmHg 40%
    14:00 +6°C° 0 mm 4 mps 754 mmHg 38%
    15:00 +7°C° 0 mm 4 mps 754 mmHg 37%
    16:00 +7°C° 0 mm 4 mps 755 mmHg 35%
    17:00 +8°C° 0 mm 3 mps 755 mmHg 36%
    18:00 +8°C° 0 mm 3 mps 755 mmHg 36%
    19:00 +8°C° 0 mm 3 mps 755 mmHg 36%
    20:00 +6°C° 0 mm 2 mps 755 mmHg 43%
    21:00 +5°C° 0 mm 1 mps 755 mmHg 49%
    22:00 +3°C° 0 mm 0 mps 755 mmHg 55%
    23:00 +3°C° 0 mm 1 mps 755 mmHg 57%

    Day after tomorrow, 26 May, Saturday

    Time Temperature Precipitation Wind Pressure Humidity
    00:00 +3°C° 0 mm 1 mps 755 mmHg 59%
    01:00 +3°C° 0 mm 1 mps 755 mmHg 61%
    02:00 +2°C° 0 mm 2 mps 755 mmHg 64%
    03:00 +2°C° 0 mm 2 mps 755 mmHg 67%
    04:00 +3°C° 0 mm 2 mps 755 mmHg 70%
    05:00 +4°C° 0 mm 2 mps 755 mmHg 68%
    06:00 +6°C° 0 mm 2 mps 755 mmHg 66%
    07:00 +8°C° 0 mm 2 mps 755 mmHg 64%
    08:00 +9°C° 0 mm 3 mps 755 mmHg 57%
    09:00 +11°C° 0 mm 3 mps 754 mmHg 50%
    10:00 +12°C° 0 mm 4 mps 754 mmHg 44%
    11:00 +13°C° 0 mm 4 mps 754 mmHg 41%
    12:00 +14°C° 0 mm 4 mps 753 mmHg 37%
    13:00 +15°C° 0 mm 4 mps 753 mmHg 34%
    14:00 +17°C° 0 mm 4 mps 753 mmHg 34%
    15:00 +18°C° 0 mm 4 mps 752 mmHg 33%
    16:00 +18°C° 0 mm 3 mps 752 mmHg 33%
    17:00 +18°C° 0 mm 3 mps 752 mmHg 36%
    18:00 +18°C° 0 mm 2 mps 751 mmHg 38%
    19:00 +19°C° 0 mm 1 mps 751 mmHg 41%
    20:00 +16°C° 0 mm 2 mps 750 mmHg 47%
    21:00 +14°C° 0 mm 2 mps 750 mmHg 54%
    22:00 +12°C° 0 mm 2 mps 749 mmHg 60%
    23:00 +12°C° 0 mm 2 mps 749 mmHg 61%

    27 May, Sunday

    Time Temperature Precipitation Wind Pressure Humidity
    00:00 +12°C° 0 mm 2 mps 749 mmHg 62%
    01:00 +12°C° 0 mm 3 mps 748 mmHg 63%
    02:00 +11°C° 0 mm 3 mps 748 mmHg 60%
    03:00 +10°C° 0 mm 3 mps 748 mmHg 57%
    04:00 +9°C° 0 mm 3 mps 748 mmHg 55%
    05:00 +9°C° 0 mm 2 mps 748 mmHg 49%
    06:00 +10°C° 0 mm 2 mps 748 mmHg 43%
    07:00 +10°C° 0 mm 2 mps 747 mmHg 37%
    08:00 +12°C° 0 mm 1 mps 746 mmHg 34%
    09:00 +14°C° 0 mm 1 mps 746 mmHg 31%
    10:00 +16°C° 0 mm 1 mps 745 mmHg 27%
    11:00 +13°C° 1.6 mm 2 mps 744 mmHg 43%
    12:00 +10°C° 1.6 mm 2 mps 743 mmHg 60%
    13:00 +7°C° 1.6 mm 3 mps 743 mmHg 76%
    14:00 +7°C° 0.5 mm 3 mps 743 mmHg 77%
    15:00 +7°C° 0.5 mm 3 mps 743 mmHg 78%
    16:00 +5°C° 0.5 mm 3 mps 743 mmHg 79%
    17:00 +7°C° 0.2 mm 3 mps 744 mmHg 78%
    18:00 +7°C° 0.2 mm 3 mps 744 mmHg 77%
    19:00 +7°C° 0.2 mm 3 mps 744 mmHg 76%
    20:00 +7°C° 0.2 mm 3 mps 745 mmHg 78%
    21:00 +5°C° 0.2 mm 4 mps 745 mmHg 81%
    22:00 +4°C° 0.2 mm 4 mps 746 mmHg 83%
    23:00 +3°C° 0 mm 3 mps 746 mmHg 83%

    28 May, Monday

    Time Temperature Precipitation Wind Pressure Humidity
    00:00 +2°C° 0 mm 3 mps 747 mmHg 83%
    01:00 +1°C° 0 mm 3 mps 747 mmHg 83%
    02:00 0°C° 0 mm 3 mps 747 mmHg 82%
    03:00 0°C° 0 mm 3 mps 748 mmHg 81%
    04:00 -1°C° 0 mm 3 mps 748 mmHg 81%
    05:00 -1°C° 0 mm 4 mps 749 mmHg 76%
    06:00 0°C° 0 mm 4 mps 749 mmHg 71%
    07:00 +1°C° 0 mm 5 mps 749 mmHg 66%
    08:00 +2°C° 0.1 mm 5 mps 749 mmHg 62%
    09:00 +2°C° 0.1 mm 5 mps 749 mmHg 57%
    10:00 +3°C° 0.1 mm 5 mps 749 mmHg 53%
    11:00 +3°C° 0 mm 5 mps 749 mmHg 51%
    12:00 +5°C° 0 mm 5 mps 749 mmHg 49%
    13:00 +5°C° 0 mm 5 mps 750 mmHg 47%
    14:00 +5°C° 0 mm 5 mps 749 mmHg 48%
    15:00 +6°C° 0 mm 5 mps 749 mmHg 48%
    16:00 +6°C° 0 mm 4 mps 749 mmHg 48%
    17:00 +6°C° 0 mm 4 mps 749 mmHg 49%
    18:00 +6°C° 0 mm 4 mps 748 mmHg 50%
    19:00 +7°C° 0 mm 3 mps 748 mmHg 51%
    20:00 +4°C° 0 mm 3 mps 748 mmHg 57%
    21:00 +4°C° 0 mm 2 mps 747 mmHg 63%
    22:00 +3°C° 0 mm 1 mps 746 mmHg 69%
    23:00 +3°C° 0 mm 1 mps 746 mmHg 71%

    29 May, Tuesday

    Time Temperature Precipitation Wind Pressure Humidity
    00:00 +3°C° 0 mm 1 mps 746 mmHg 72%
    01:00 +2°C° 0 mm 1 mps 746 mmHg 74%
    02:00 +2°C° 0 mm 1 mps 746 mmHg 75%
    03:00 +2°C° 0 mm 1 mps 747 mmHg 76%
    04:00 +2°C° 0 mm 1 mps 747 mmHg 77%
    05:00 +2°C° 0 mm 2 mps 747 mmHg 69%
    06:00 +3°C° 0 mm 3 mps 747 mmHg 61%
    07:00 +4°C° 0 mm 4 mps 748 mmHg 53%
    08:00 +5°C° 0 mm 4 mps 748 mmHg 50%
    09:00 +5°C° 0 mm 4 mps 748 mmHg 46%
    10:00 +6°C° 0 mm 4 mps 748 mmHg 43%
    11:00 +7°C° 0 mm 4 mps 748 mmHg 40%
    12:00 +8°C° 0 mm 5 mps 748 mmHg 37%
    13:00 +9°C° 0 mm 5 mps 748 mmHg 35%
    14:00 +9°C° 0 mm 5 mps 747 mmHg 34%
    15:00 +9°C° 0 mm 5 mps 747 mmHg 34%
    16:00 +10°C° 0 mm 5 mps 747 mmHg 33%
    17:00 +10°C° 0 mm 4 mps 747 mmHg 34%
    18:00 +10°C° 0 mm 4 mps 747 mmHg 36%
    19:00 +10°C° 0 mm 4 mps 747 mmHg 37%
    20:00 +8°C° 0 mm 3 mps 746 mmHg 45%
    21:00 +7°C° 0 mm 3 mps 746 mmHg 53%
    22:00 +4°C° 0 mm 3 mps 746 mmHg 60%
    23:00 +4°C° 0 mm 2 mps 746 mmHg 66%
    Show more